User: anonymous   Login
Location: Newark
(46.7000°N, 60.6000°W)
Time: 01:26:20
(UTC+00:00)
Language:

S-56A Canister/Altair - Orbit

View from above orbital plane
View from above orbital plane
View from above satellite
View from above satellite

Ground track
Ground track

The orbit data is extracted from the following two-line orbital elements,

1    82U 61004B   20300.49298026 -.00000083 +00000-0 -24525-4 0  9991
2    82 038.8592 073.1678 1174944 356.0135 003.1821 12.26056746823896
Epoch (UTC): 26 October 2020 11:49:53
Eccentricity: 0.1174944
inclination: 38.8592°
perigee height: 633 km
apogee height: 2499 km
right ascension of ascending node: 73.1678°
argument of perigee: 356.0135°
revolutions per day: 12.26056746
mean anomaly at epoch: 3.1821°
orbit number at epoch: 82389

The dashed part of the orbit path shows where the satellite is in the earth's shadow,  

DLR